Knoxville, TN

7:45 AM EST on February 24, 2018 (GMT -0500)
McGhee Tyson

Weather History for KTYS - October, 2011

Change the Weather History Date:

Friday, October 7, 2011

  Actual Average Record
Temperature  
Mean Temperature 66 °F 63 °F  
Max Temperature 80 °F 74 °F 91 °F (1884)
Min Temperature 52 °F 52 °F 34 °F (1985)
Degree Days  
Heating Degree Days 0 4  
Month to date heating degree days 41 23  
Since 1 July heating degree days 52 46  
Cooling Degree Days 1 2  
Month to date cooling degree days 3 16  
Year to date cooling degree days 1852 1503  
Growing Degree Days 16 (Base 50)    
Moisture  
Dew Point 55 °F    
Average Humidity 70    
Maximum Humidity 100    
Minimum Humidity 39    
Precipitation  
Precipitation 0.00 in 0.08 in 2.07 in (1955)
Month to date precipitation T 0.60  
Year to date precipitation 39.89 37.44  
Snow  
Snow 0.00 in 0.00 in - ()
Month to date snowfall 0.0 0.0  
Since 1 July snowfall 0.0 0.0  
Since 1 September snowfall 0.0 0.0  
Snow Depth 0.00 in    
Sea Level Pressure  
Sea Level Pressure 30.31 in    
Wind  
Wind Speed 2 mph (NE)    
Max Wind Speed 8 mph    
Max Gust Speed 12 mph    
Visibility 9 miles    
Events      
T = Trace of Precipitation, MM = Missing Value Source: NWS Daily Summary

Daily Weather History Graph

Daily Weather History Graph

Search for Another Location

Airport or City:

Trip Planner

Search our weather history database for the weather conditions in past years. The results will help you decide how hot, cold, wet, or windy it might be!

Date:

Astronomy

Oct. 07, 2011 Rise Set
Actual Time 7:35 AM EDT 7:11 PM EDT
Civil Twilight 7:10 AM EDT 7:37 PM EDT
Nautical Twilight 6:40 AM EDT 8:06 PM EDT
Astronomical Twilight 6:10 AM EDT 8:36 PM EDT
Moon 4:47 PM EDT (10/7) 3:30 AM EDT (10/7)
Length of Visible Light 12h 27m
Length of Day
11h 35m
Waxing Gibbous, 83% of the Moon is Illuminated
Oct 7
Waxing Gibbous
Oct 11
Full
Oct 19
Last Quarter
Oct 26
New
Nov 2
First Quarter

Hourly Weather History & Observations

Time (EDT) Temp. Heat Index Dew Point Humidity Pressure Visibility Wind Dir Wind Speed Gust Speed Precip Events Conditions
12:53 AM 59.0 °F - 55.9 °F 90% 30.28 in 10.0 mi Calm Calm - N/A   Clear
1:53 AM 57.9 °F - 55.0 °F 90% 30.27 in 10.0 mi Calm Calm - N/A   Clear
2:53 AM 55.9 °F - 54.0 °F 93% 30.27 in 9.0 mi Calm Calm - N/A   Clear
3:53 AM 55.9 °F - 54.0 °F 93% 30.30 in 10.0 mi Calm Calm - N/A   Clear
4:53 AM 55.0 °F - 54.0 °F 96% 30.29 in 9.0 mi Calm Calm - N/A   Clear
5:53 AM 53.1 °F - 52.0 °F 96% 30.31 in 3.0 mi Calm Calm - N/A   Clear
6:53 AM 55.0 °F - 53.1 °F 93% 30.33 in 4.0 mi Calm Calm - N/A   Partly Cloudy
7:53 AM 52.0 °F - 52.0 °F 100% 30.35 in 3.0 mi Calm Calm - N/A   Partly Cloudy
8:53 AM 57.0 °F - 55.0 °F 93% 30.36 in 6.0 mi Calm Calm - N/A   Clear
9:53 AM 63.0 °F - 57.0 °F 81% 30.37 in 8.0 mi NNE 5.8 mph - N/A   Clear
10:53 AM 66.9 °F - 55.9 °F 68% 30.38 in 10.0 mi Calm Calm - N/A   Clear
11:53 AM 71.1 °F - 55.9 °F 59% 30.37 in 10.0 mi Variable 3.5 mph - N/A   Clear
12:53 PM 73.0 °F - 55.9 °F 55% 30.36 in 10.0 mi Variable 3.5 mph - N/A   Partly Cloudy
1:53 PM 75.0 °F - 57.0 °F 53% 30.33 in 10.0 mi NW 3.5 mph - N/A   Partly Cloudy
2:53 PM 78.1 °F - 57.0 °F 48% 30.30 in 10.0 mi East 6.9 mph - N/A   Partly Cloudy
3:53 PM 80.1 °F 80.1 °F 55.0 °F 42% 30.29 in 10.0 mi North 5.8 mph - N/A   Partly Cloudy
4:53 PM 79.0 °F - 54.0 °F 42% 30.28 in 10.0 mi East 5.8 mph - N/A   Partly Cloudy
5:53 PM 80.1 °F 80.0 °F 54.0 °F 40% 30.27 in 10.0 mi North 4.6 mph - N/A   Partly Cloudy
6:53 PM 75.0 °F - 55.0 °F 50% 30.27 in 10.0 mi ENE 3.5 mph - N/A   Clear
7:53 PM 71.1 °F - 55.0 °F 57% 30.28 in 10.0 mi Calm Calm - N/A   Clear
8:53 PM 66.9 °F - 57.0 °F 70% 30.30 in 10.0 mi Calm Calm - N/A   Clear
9:53 PM 64.0 °F - 55.9 °F 75% 30.31 in 10.0 mi SE 3.5 mph - N/A   Clear
10:53 PM 64.9 °F - 55.9 °F 73% 30.32 in 10.0 mi Calm Calm - N/A   Clear
11:53 PM 62.1 °F - 55.0 °F 78% 30.33 in 10.0 mi West 4.6 mph - N/A   Clear